Location: Diebersbach
(48.5163°N, 8.0558°E)
Time: 00:35:58
(UTC+00:00)

Cosmos 1825 - Pass Details

Date: 01 November 2021
Orbit: 501 x 504 km, 82.5° (Epoch: 01 December)

Event Time Altitude Azimuth Distance (km) Brightness Sun altitude
Rises 16:58:03 0° 357° (N) 2,612 5.7 -8.8°
Reaches altitude 10° 17:00:19 10° 7° (N) 1,723 4.7 -9.1°
Maximum altitude 17:03:48 34° 74° (ENE) 843 2.7 -9.7°
Drops below altitude 10° 17:07:15 10° 141° (SE) 1,711 4.6 -10.3°
Sets 17:09:30 0° 151° (SSE) 2,591 5.6 -10.6°
